カタログに戻る

SMAP

運用中科学SSO
NORAD 40376·PAYLOAD·🇺🇸 United States

打ち上げ Jan 31, 2015 から Vandenberg Space Force Base

Loading…

次のパス (今後24時間)

TLE

最新Source: Space-Track

元期: Sep 14, 2026, 14:01 UTC

1 40376U 15003A   26257.58432821  .00000271  00000-0  61456-4 0  9990
2 40376  98.1315 263.4276 0001446  91.1743 268.9625 14.63370458620691

AllMySatでSMAPをリアルタイム追跡

Download on the App Store